Time,TemperatureF,DewpointF,PressureIn,WindDirection,WindDirectionDegrees,WindSpeedMPH,WindSpeedGustMPH,Humidity,HourlyPrecipIn,Conditions,Clouds,dailyrainin,SoftwareType,DateUTC
2013-12-19 00:11:00,24.3,23.0,30.32,WSW,246,6.0,-999.0,94,-99.99,,,0.00,weatherlink.com 1.10,2013-12-19 05:11:00,
2013-12-19 00:26:00,25.5,24.0,30.32,WSW,242,5.0,-999.0,93,-99.99,,,0.00,weatherlink.com 1.10,2013-12-19 05:26:00,
2013-12-19 00:41:00,26.3,24.0,30.31,WSW,240,5.0,-999.0,92,-99.99,,,0.00,weatherlink.com 1.10,2013-12-19 05:41:00,
2013-12-19 00:56:00,26.8,25.0,30.31,SW,228,6.0,-999.0,92,-99.99,,,0.00,weatherlink.com 1.10,2013-12-19 05:56:00,
2013-12-19 01:11:00,27.1,25.0,30.31,WSW,237,7.0,-999.0,92,-99.99,,,0.00,weatherlink.com 1.10,2013-12-19 06:11:00,
2013-12-19 01:41:00,27.6,26.0,30.31,WSW,237,4.0,-999.0,92,-99.99,,,0.00,weatherlink.com 1.10,2013-12-19 06:41:00,
2013-12-19 01:56:00,27.8,26.0,30.31,SW,221,7.0,-999.0,92,-99.99,,,0.00,weatherlink.com 1.10,2013-12-19 06:56:00,
2013-12-19 02:12:00,28.1,26.0,30.31,WSW,246,6.0,-999.0,91,-99.99,,,0.00,weatherlink.com 1.10,2013-12-19 07:12:00,
2013-12-19 02:27:00,28.5,26.0,30.31,SW,229,7.0,-999.0,90,-99.99,,,0.00,weatherlink.com 1.10,2013-12-19 07:27:00,
2013-12-19 02:42:00,28.8,26.0,30.31,SW,231,8.0,-999.0,90,-99.99,,,0.00,weatherlink.com 1.10,2013-12-19 07:42:00,
2013-12-19 02:57:00,29.1,27.0,30.31,WSW,237,13.0,-999.0,90,-99.99,,,0.00,weatherlink.com 1.10,2013-12-19 07:57:00,
2013-12-19 03:12:00,29.3,27.0,30.31,SW,235,13.0,-999.0,90,-99.99,,,0.00,weatherlink.com 1.10,2013-12-19 08:12:00,
2013-12-19 03:27:00,29.5,27.0,30.30,SW,222,10.0,-999.0,89,-99.99,,,0.00,weatherlink.com 1.10,2013-12-19 08:27:00,
2013-12-19 03:42:00,29.8,27.0,30.30,WSW,237,16.0,-999.0,89,-99.99,,,0.00,weatherlink.com 1.10,2013-12-19 08:42:00,
2013-12-19 03:57:00,29.9,27.0,30.30,SW,236,14.0,-999.0,89,-99.99,,,0.00,weatherlink.com 1.10,2013-12-19 08:57:00,
2013-12-19 04:12:00,29.8,27.0,30.30,WSW,242,13.0,-999.0,89,-99.99,,,0.00,weatherlink.com 1.10,2013-12-19 09:12:00,
2013-12-19 04:27:00,30.2,27.0,30.30,SW,232,12.0,-999.0,88,-99.99,,,0.00,weatherlink.com 1.10,2013-12-19 09:27:00,
2013-12-19 04:42:00,29.9,27.0,30.30,WSW,240,14.0,-999.0,88,-99.99,,,0.00,weatherlink.com 1.10,2013-12-19 09:42:00,
2013-12-19 04:57:00,29.6,27.0,30.31,SW,236,13.0,-999.0,88,-99.99,,,0.00,weatherlink.com 1.10,2013-12-19 09:57:00,
2013-12-19 05:12:00,29.7,27.0,30.31,West,278,10.0,-999.0,88,-99.99,,,0.00,weatherlink.com 1.10,2013-12-19 10:12:00,
2013-12-19 05:27:00,29.8,26.0,30.31,West,279,19.0,-999.0,87,-99.99,,,0.00,weatherlink.com 1.10,2013-12-19 10:27:00,
2013-12-19 05:42:00,29.9,27.0,30.31,WSW,246,11.0,-999.0,87,-99.99,,,0.00,weatherlink.com 1.10,2013-12-19 10:42:00,
2013-12-19 05:57:00,30.1,27.0,30.32,SW,227,7.0,-999.0,87,-99.99,,,0.00,weatherlink.com 1.10,2013-12-19 10:57:00,
2013-12-19 06:12:00,31.2,28.0,30.32,West,266,13.0,-999.0,88,-99.99,,,0.00,weatherlink.com 1.10,2013-12-19 11:12:00,
2013-12-19 06:27:00,32.1,30.0,30.32,West,261,11.0,-999.0,92,-99.99,,,0.00,weatherlink.com 1.10,2013-12-19 11:27:00,
2013-12-19 06:42:00,33.0,32.0,30.32,West,259,6.0,-999.0,95,-99.99,,,0.00,weatherlink.com 1.10,2013-12-19 11:42:00,
2013-12-19 06:57:00,33.3,32.0,30.33,WSW,256,11.0,-999.0,94,-99.99,,,0.00,weatherlink.com 1.10,2013-12-19 11:57:00,
2013-12-19 07:12:00,33.6,32.0,30.33,SW,215,11.0,-999.0,93,-99.99,,,0.00,weatherlink.com 1.10,2013-12-19 12:12:00,
2013-12-19 07:27:00,33.9,31.0,30.33,WNW,288,7.0,-999.0,90,-99.99,,,0.00,weatherlink.com 1.10,2013-12-19 12:27:00,
2013-12-19 07:42:00,34.4,31.0,30.34,WSW,242,18.0,-999.0,87,-99.99,,,0.00,weatherlink.com 1.10,2013-12-19 12:42:00,
2013-12-19 07:57:00,34.9,31.0,30.34,WSW,240,15.0,-999.0,84,-99.99,,,0.00,weatherlink.com 1.10,2013-12-19 12:57:00,
2013-12-19 08:12:00,35.3,31.0,30.34,SW,223,10.0,-999.0,83,-99.99,,,0.00,weatherlink.com 1.10,2013-12-19 13:12:00,
2013-12-19 08:27:00,35.7,30.0,30.34,WSW,240,16.0,-999.0,81,-99.99,,,0.00,weatherlink.com 1.10,2013-12-19 13:27:00,
2013-12-19 08:42:00,36.3,30.0,30.35,SW,236,12.0,-999.0,79,-99.99,,,0.00,weatherlink.com 1.10,2013-12-19 13:42:00,
2013-12-19 08:57:00,36.6,30.0,30.35,WSW,239,18.0,-999.0,76,-99.99,,,0.00,weatherlink.com 1.10,2013-12-19 13:57:00,
2013-12-19 09:12:00,37.2,30.0,30.34,West,281,24.0,-999.0,74,-99.99,,,0.00,weatherlink.com 1.10,2013-12-19 14:12:00,
2013-12-19 09:27:00,37.5,29.0,30.34,WSW,242,24.0,-999.0,72,-99.99,,,0.00,weatherlink.com 1.10,2013-12-19 14:27:00,
2013-12-19 09:42:00,38.2,29.0,30.34,WSW,252,19.0,-999.0,70,-99.99,,,0.00,weatherlink.com 1.10,2013-12-19 14:42:00,
2013-12-19 09:57:00,38.6,27.0,30.33,SW,236,24.0,-999.0,63,-99.99,,,0.01,weatherlink.com 1.10,2013-12-19 14:57:00,
2013-12-19 10:12:00,38.9,26.0,30.33,WSW,237,24.0,-999.0,60,-99.99,,,0.02,weatherlink.com 1.10,2013-12-19 15:12:00,
2013-12-19 10:27:00,39.3,26.0,30.33,WSW,252,34.0,-999.0,60,-99.99,,,0.03,weatherlink.com 1.10,2013-12-19 15:27:00,
2013-12-19 10:42:00,39.4,26.0,30.32,WSW,246,18.0,-999.0,58,-99.99,,,0.03,weatherlink.com 1.10,2013-12-19 15:42:00,
2013-12-19 10:58:00,39.6,25.0,30.31,West,262,23.0,-999.0,57,-99.99,,,0.04,weatherlink.com 1.10,2013-12-19 15:58:00,
2013-12-19 11:13:00,39.8,25.0,30.32,WSW,253,15.0,-999.0,56,-99.99,,,0.05,weatherlink.com 1.10,2013-12-19 16:13:00,
2013-12-19 11:28:00,40.1,24.0,30.31,SW,221,27.0,-999.0,53,-99.99,,,0.05,weatherlink.com 1.10,2013-12-19 16:28:00,
2013-12-19 11:43:00,40.1,24.0,30.29,West,269,20.0,-999.0,53,-99.99,,,0.05,weatherlink.com 1.10,2013-12-19 16:43:00,
2013-12-19 11:58:00,40.3,24.0,30.29,WSW,242,21.0,-999.0,53,-99.99,,,0.05,weatherlink.com 1.10,2013-12-19 16:58:00,
2013-12-19 12:13:00,40.5,24.0,30.28,WSW,250,22.0,-999.0,53,-99.99,,,0.05,weatherlink.com 1.10,2013-12-19 17:13:00,
2013-12-19 12:28:00,40.6,24.0,30.27,SW,225,23.0,-999.0,53,-99.99,,,0.05,weatherlink.com 1.10,2013-12-19 17:28:00,
2013-12-19 12:43:00,40.9,24.0,30.27,SW,230,23.0,-999.0,52,-99.99,,,0.05,weatherlink.com 1.10,2013-12-19 17:43:00,
2013-12-19 12:58:00,41.2,25.0,30.27,WSW,237,18.0,-999.0,52,-99.99,,,0.05,weatherlink.com 1.10,2013-12-19 17:58:00,
2013-12-19 13:13:00,41.1,24.0,30.26,WSW,247,16.0,-999.0,52,-99.99,,,0.05,weatherlink.com 1.10,2013-12-19 18:13:00,
2013-12-19 13:28:00,41.4,24.0,30.26,SW,233,22.0,-999.0,51,-99.99,,,0.05,weatherlink.com 1.10,2013-12-19 18:28:00,
2013-12-19 13:43:00,41.8,24.0,30.25,WSW,246,27.0,-999.0,50,-99.99,,,0.05,weatherlink.com 1.10,2013-12-19 18:43:00,
2013-12-19 13:58:00,42.2,25.0,30.25,SW,235,24.0,-999.0,50,-99.99,,,0.05,weatherlink.com 1.10,2013-12-19 18:58:00,
2013-12-19 14:13:00,42.3,24.0,30.25,SW,228,19.0,-999.0,49,-99.99,,,0.05,weatherlink.com 1.10,2013-12-19 19:13:00,
2013-12-19 14:28:00,42.8,25.0,30.24,West,263,14.0,-999.0,49,-99.99,,,0.05,weatherlink.com 1.10,2013-12-19 19:28:00,
2013-12-19 14:43:00,43.2,25.0,30.24,WSW,257,13.0,-999.0,48,-99.99,,,0.05,weatherlink.com 1.10,2013-12-19 19:43:00,
2013-12-19 14:58:00,43.2,25.0,30.24,West,261,13.0,-999.0,48,-99.99,,,0.05,weatherlink.com 1.10,2013-12-19 19:58:00,
2013-12-19 15:13:00,43.4,25.0,30.24,WSW,242,16.0,-999.0,48,-99.99,,,0.05,weatherlink.com 1.10,2013-12-19 20:13:00,
2013-12-19 15:28:00,43.7,25.0,30.24,SW,224,19.0,-999.0,48,-99.99,,,0.05,weatherlink.com 1.10,2013-12-19 20:28:00,
2013-12-19 15:43:00,43.6,24.0,30.23,WSW,257,12.0,-999.0,47,-99.99,,,0.05,weatherlink.com 1.10,2013-12-19 20:43:00,
2013-12-19 15:58:00,43.1,23.0,30.23,WSW,237,21.0,-999.0,46,-99.99,,,0.05,weatherlink.com 1.10,2013-12-19 20:58:00,
2013-12-19 16:13:00,42.5,23.0,30.24,WSW,240,21.0,-999.0,46,-99.99,,,0.05,weatherlink.com 1.10,2013-12-19 21:13:00,
2013-12-19 16:28:00,42.2,24.0,30.24,WSW,247,15.0,-999.0,48,-99.99,,,0.05,weatherlink.com 1.10,2013-12-19 21:28:00,
2013-12-19 16:43:00,42.0,23.0,30.25,SW,234,21.0,-999.0,48,-99.99,,,0.05,weatherlink.com 1.10,2013-12-19 21:43:00,
2013-12-19 16:58:00,42.1,24.0,30.25,SW,232,20.0,-999.0,48,-99.99,,,0.05,weatherlink.com 1.10,2013-12-19 21:58:00,
2013-12-19 17:13:00,42.4,23.0,30.24,SW,218,14.0,-999.0,46,-99.99,,,0.05,weatherlink.com 1.10,2013-12-19 22:13:00,
2013-12-19 17:28:00,42.3,23.0,30.25,WSW,238,16.0,-999.0,46,-99.99,,,0.05,weatherlink.com 1.10,2013-12-19 22:28:00,
2013-12-19 17:43:00,42.1,23.0,30.25,WSW,241,13.0,-999.0,46,-99.99,,,0.05,weatherlink.com 1.10,2013-12-19 22:43:00,
2013-12-19 17:58:00,42.6,22.0,30.24,SW,236,21.0,-999.0,44,-99.99,,,0.05,weatherlink.com 1.10,2013-12-19 22:58:00,
2013-12-19 18:13:00,42.8,22.0,30.23,WSW,251,16.0,-999.0,43,-99.99,,,0.05,weatherlink.com 1.10,2013-12-19 23:13:00,
2013-12-19 18:28:00,43.0,22.0,30.24,WSW,242,12.0,-999.0,43,-99.99,,,0.05,weatherlink.com 1.10,2013-12-19 23:28:00,
2013-12-19 18:43:00,44.3,21.0,30.23,SW,234,25.0,-999.0,40,-99.99,,,0.05,weatherlink.com 1.10,2013-12-19 23:43:00,
2013-12-19 18:58:00,44.3,21.0,30.23,WSW,239,16.0,-999.0,39,-99.99,,,0.05,weatherlink.com 1.10,2013-12-19 23:58:00,
2013-12-19 19:13:00,44.5,21.0,30.23,WSW,240,20.0,-999.0,39,-99.99,,,0.05,weatherlink.com 1.10,2013-12-20 00:13:00,
2013-12-19 19:28:00,44.0,21.0,30.23,WSW,242,22.0,-999.0,40,-99.99,,,0.05,weatherlink.com 1.10,2013-12-20 00:28:00,
2013-12-19 19:43:00,44.1,20.0,30.23,SW,234,9.0,-999.0,39,-99.99,,,0.05,weatherlink.com 1.10,2013-12-20 00:43:00,
2013-12-19 19:58:00,43.7,21.0,30.23,SW,236,21.0,-999.0,40,-99.99,,,0.05,weatherlink.com 1.10,2013-12-20 00:58:00,
2013-12-19 20:13:00,43.9,21.0,30.22,SW,230,11.0,-999.0,40,-99.99,,,0.05,weatherlink.com 1.10,2013-12-20 01:13:00,
2013-12-19 20:28:00,44.2,21.0,30.22,SW,224,12.0,-999.0,40,-99.99,,,0.05,weatherlink.com 1.10,2013-12-20 01:28:00,
2013-12-19 20:43:00,44.5,21.0,30.21,SW,231,18.0,-999.0,40,-99.99,,,0.05,weatherlink.com 1.10,2013-12-20 01:43:00,
2013-12-19 20:58:00,44.4,21.0,30.21,SW,234,20.0,-999.0,39,-99.99,,,0.05,weatherlink.com 1.10,2013-12-20 01:58:00,
2013-12-19 21:13:00,45.0,21.0,30.20,WSW,254,12.0,-999.0,38,-99.99,,,0.05,weatherlink.com 1.10,2013-12-20 02:13:00,
2013-12-19 21:28:00,45.4,21.0,30.21,SW,223,10.0,-999.0,38,-99.99,,,0.05,weatherlink.com 1.10,2013-12-20 02:28:00,
2013-12-19 21:43:00,45.0,21.0,30.20,WSW,254,11.0,-999.0,39,-99.99,,,0.05,weatherlink.com 1.10,2013-12-20 02:43:00,
2013-12-19 21:58:00,44.8,21.0,30.20,SW,219,10.0,-999.0,39,-99.99,,,0.05,weatherlink.com 1.10,2013-12-20 02:58:00,
2013-12-19 22:13:00,45.1,21.0,30.19,SW,231,9.0,-999.0,39,-99.99,,,0.05,weatherlink.com 1.10,2013-12-20 03:13:00,
2013-12-19 22:28:00,45.2,21.0,30.18,SW,222,8.0,-999.0,38,-99.99,,,0.05,weatherlink.com 1.10,2013-12-20 03:28:00,
2013-12-19 22:43:00,45.3,21.0,30.18,SW,235,15.0,-999.0,39,-99.99,,,0.05,weatherlink.com 1.10,2013-12-20 03:43:00,
2013-12-19 22:59:00,45.1,21.0,30.17,SSW,209,12.0,-999.0,39,-99.99,,,0.05,weatherlink.com 1.10,2013-12-20 03:59:00,
2013-12-19 23:14:00,45.1,21.0,30.16,SSW,213,10.0,-999.0,39,-99.99,,,0.05,weatherlink.com 1.10,2013-12-20 04:14:00,
2013-12-19 23:29:00,45.2,21.0,30.16,WSW,238,12.0,-999.0,39,-99.99,,,0.05,weatherlink.com 1.10,2013-12-20 04:29:00,
2013-12-19 23:44:00,45.2,21.0,30.16,SW,214,11.0,-999.0,39,-99.99,,,0.05,weatherlink.com 1.10,2013-12-20 04:44:00,
2013-12-19 23:59:00,45.2,21.0,30.15,South,181,12.0,-999.0,39,-99.99,,,0.05,weatherlink.com 1.10,2013-12-20 04:59:00,